User: anonymous   Login
Location: ??????
(30.5519°N, 47.7720°E)
Time: 19:58:19
(UTC+00:00)
Language:

NOAA 11 - Orbit

View from above orbital plane
View from above orbital plane
View from above satellite
View from above satellite

Ground track
Ground track

The orbit data is extracted from the following two-line orbital elements,

1 19531U 88089A   21111.77582416 -.00000001  00000-0  20600-4 0  9992
2 19531  98.4057 119.6504 0010360 319.4125  40.6276 14.15271342681173
Epoch (UTC): 21 April 2021 18:37:11
Eccentricity: 0.0010360
inclination: 98.4057°
perigee height: 834 km
apogee height: 849 km
right ascension of ascending node: 119.6504°
argument of perigee: 319.4125°
revolutions per day: 14.15271342
mean anomaly at epoch: 40.6276°
orbit number at epoch: 68117

The dashed part of the orbit path shows where the satellite is in the earth's shadow,  

DLR